Location: Ellingshausen
(50.5460°N, 10.4723°E)
Time: 12:39:34
(UTC+00:00)

Cosmos 676 Rocket - Pass Details

Date: 12 April 2026
Orbit: 750 x 779 km, 74.0° (Epoch: 19 May)

Event Time Altitude Azimuth Distance (km) Brightness Sun altitude
Rises 00:47:48 0° 331° (NNW) 3,270 7.7 -27.8°
Reaches altitude 10° 00:50:16 10° 326° (NW) 2,336 6.8 -27.6°
Enters shadow 00:53:39 34° 299° (WNW) 1,250 5.0 -27.4°
